Regional Weather Roundup
Issued by NWS

Home | Current Version | Previous Version | Graphics & Text | Print | Product List | Glossary On
Versions: 1 2 3 4 5 6 7 8 9 10 11 12 13 14 15 16 17 18 19 20 21 22 23 24 25 26 27 28 29 30 31 32 33 34 35 36 37 38 39 40 41 42 43 44 45 46 47 48 49 50
000
ASUS43 KOAX 181310
RWRNE

WEATHER ROUNDUP FOR NEBRASKA
NATIONAL WEATHER SERVICE OMAHA NE
800 AM CDT FRI APR 18 2014

NOTES: SATELLITE DATA IS BEING USED TO AUGMENT CLOUD COVER ABOVE
       12000 FEET.
       "FAIR" INDICATES FEW OR NO CLOUDS BELOW 12,000 FEET WITH NO
       SIGNIFICANT WEATHER AND/OR OBSTRUCTIONS TO VISIBILITY.

  * THESE STATIONS DO NOT REPORT WEATHER SUCH AS RAIN...SNOW OR FOG.

NEZ001>004-019>022-054>056-181400-
NEBRASKA PANHANDLE

CITY           SKY/WX    TMP DP  RH WIND       PRES   REMARKS
SCOTTSBLUFF    PTCLDY    40  35  83 E10       29.92S WCI  33
ALLIANCE       MOCLDY    37  35  92 SE6       29.92S WCI  32
CHADRON        MOCLDY    40  35  83 CALM      29.85S
KIMBALL        PTCLDY    37  32  83 SW5       29.95S WCI  33
SIDNEY         PTCLDY    40  34  79 SW10      29.97S WCI  33
$$

NEZ057>060-069>072-079>082-181400-
SOUTHWEST NEBRASKA

CITY           SKY/WX    TMP DP  RH WIND       PRES   REMARKS
NORTH PLATTE   SUNNY     39  36  89 S15       30.06S WCI  31
IMPERIAL       CLEAR     40  34  79 S10       30.05S WCI  33
LEXINGTON      SUNNY     42  38  85 S13       30.12R
MCCOOK         SUNNY     40  36  86 S13       30.10F WCI  32
OGALLALA       CLEAR     38  34  84 S7        30.03R WCI  33
$$

NEZ005>010-023>029-035>040-094-181400-
NORTH CENTRAL NEBRASKA

CITY           SKY/WX    TMP DP  RH WIND       PRES   REMARKS
VALENTINE      SUNNY     43  36  76 S14       29.95F
AINSWORTH      MOSUNNY   42  37  80 S24G30    29.98S
BROKEN BOW     SUNNY     41  38  89 S17G28    30.09S
O`NEILL        SUNNY     40  32  74 S13       30.08F WCI  33
ORD            SUNNY     36  32  85 SE6       30.12F WCI  31
THEDFORD       SUNNY     43  36  75 S14G21    30.02S
$$

NEZ041-046>049-061>064-073>077-083>087-181400-
SOUTH CENTRAL NEBRASKA

CITY           SKY/WX    TMP DP  RH WIND       PRES   REMARKS
GRAND ISLAND   SUNNY     40  33  76 S12       30.18F WCI  33
AURORA         SUNNY     40  34  78 S10       30.19F WCI  34
HASTINGS       SUNNY     39  33  79 S10       30.18F WCI  32
HEBRON         SUNNY     38  33  82 S3        30.25R HAZE
HOLDREGE       SUNNY     39  36  87 S12       30.14S WCI  32
KEARNEY *      SUNNY     39  36  87 S14       30.15F WCI  31
YORK           SUNNY     37  32  81 S8        30.22S WCI  31
$$

NEZ011>018-030>034-042>045-181400-
NORTHEAST NEBRASKA

CITY           SKY/WX    TMP DP  RH WIND       PRES   REMARKS
NORFOLK        SUNNY     41  30  65 S10       30.19S HAZE
ALBION         SUNNY     38  31  76 S9        30.17F WCI  31
BLAIR          SUNNY     39  31  72 SE6       30.26S HAZE    WCI  35
COLUMBUS *     SUNNY     37  28  70 SE3       30.22S
FREMONT        SUNNY     40  32  73 SE5       30.25F HAZE
TEKAMAH        SUNNY     33  26  75 S6        30.27F WCI  28
$$

NEZ050>053-065>068-078-088>093-181400-
SOUTHEAST NEBRASKA

CITY           SKY/WX    TMP DP  RH WIND       PRES   REMARKS
LINCOLN        SUNNY     37  31  78 S7        30.27S HAZE    WCI  32
OMAHA EPPLEY   MOSUNNY   35  29  78 SE3       30.30R
BEATRICE         N/A     36  31  82 SE3       30.28R HAZE
FALLS CITY     SUNNY     33  31  92 E3        30.30R FOG
NEBRASKA CITY  SUNNY     36  32  87 CALM      30.28F FOG
PLATTSMOUTH    SUNNY     37  31  81 E3        30.28S HAZE
$$

NEZ044-045-051>053-067-181400-
OMAHA AREA

CITY           SKY/WX    TMP DP  RH WIND       PRES   REMARKS
OMAHA EPPLEY   MOSUNNY   35  29  78 SE3       30.30R
BLAIR          SUNNY     39  31  72 SE6       30.26S HAZE    WCI  35
FREMONT        SUNNY     40  32  73 SE5       30.25F HAZE
MILLARD        SUNNY     34  29  82 CALM      30.28S
OFFUTT AFB     SUNNY     32  31  99 E5        30.29R WCI  27
PLATTSMOUTH    SUNNY     37  31  81 E3        30.28S HAZE
WAHOO          FAIR      34  30  83 SE5       30.25S FOG     WCI  30
$$



USA.gov is the U.S. government's official web portal to all federal, state and local government web resources and services.